SPAINSAT

Last updated on Fri Dec 19 2025 00:02:49 GMT+0000 (Coordinated Universal Time)

1 28945U 06007A 25351.84284583 -.00000192 00000+0 00000+0 0 9990 2 28945 0.0971 95.5864 0004902 161.6627 102.7077 1.00270745 72401
UTC large
Height (km)
Speed (km/s)
/
Latitude / Longitude
Inclination (degrees)
Orbital Period (minutes)
Azimuth
Elevation
Range (km)
Doppler Factor

Next 0 passes for location: London (51.5072 / 0.1276)

Sorry there are no passes over London.